カタログに戻る

ONEWEB-0220

運用中通信PO
NORAD 48232·PAYLOAD·🇬🇧 United Kingdom

打ち上げ Apr 25, 2021 から Vostochny Cosmodrome

Loading…

次のパス (今後24時間)

TLE

最新Source: CelesTrak SupGP

元期: Sep 14, 2026, 13:11 UTC

1 48232C 21031Y   26257.54983053 -.00000399  00000+0 -10767-2 0  2577
2 48232  87.8898 271.8821 0001802  98.9606 335.0434 13.14501735    10

AllMySatでONEWEB-0220をリアルタイム追跡

Download on the App Store